Regional Weather Roundup
Issued by NWS Kansas City/Pleasant Hill, MO

Home | Current Version | Previous Version | Text Only | Print | Product List | Glossary On
Versions: 1 2 3 4 5 6 7 8 9 10 11 12 13 14 15 16 17 18 19 20 21 22 23 24 25 26 27 28 29 30 31 32 33 34 35 36 37 38 39 40 41 42 43 44 45 46 47 48 49 50
000
ASUS43 KEAX 252310
RWREAX

WEATHER ROUNDUP FOR EASTERN KANSAS AND NORTHWEST MISSOURI
NATIONAL WEATHER SERVICE KANSAS CITY/PLEASANT HILL MO
600 PM CDT SAT APR 25 2015

KSZ040-057-103>105-MOZ028-029-037-043-260000-
...KANSAS CITY METROPOLITAN AREA...

CITY           SKY/WX    TMP DP  RH WIND       PRES   REMARKS
K.C. INTL      CLOUDY    51  49  92 N13       29.67R
K.C. DOWNTOWN  CLOUDY    54  49  83 N13       29.67R
LEES SUMMIT    CLOUDY    54  51  90 N15       29.67R
OLATHE - IXD   CLOUDY    55  52  89 N16       29.67R
OLATHE - OJC   CLOUDY    56  52  86 N13       29.66R
LAWRENCE       CLOUDY    55  50  83 N13       29.68R

$$

MOZ001>008-011>017-020>025-030>033-038>040-044>046-053-054-260000-
...NORTHERN AND CENTRAL MISSOURI...

CITY           SKY/WX    TMP DP  RH WIND       PRES   REMARKS
ST. JOSEPH     CLOUDY    50  46  86 N13       29.71R
MOSBY            N/A     50  48  93 N13G18    29.68R
WARRENSBURG    CLOUDY    54  50  87 N13G20    29.64R
WHITEMAN AFB   CLOUDY    55  52  88 N16G22    29.62R
CLINTON        CLOUDY    61  55  82 N17       29.62R
SEDALIA        CLOUDY    58  53  84 N14       29.62R
WARSAW         NOT AVBL
MARSHALL       CLOUDY    57  57 100 N12       29.64R FOG
CHILLICOTHE      N/A     51  49  92 N8G21     29.69R
MOBERLY        DRIZZLE   54  50  87 N18G26    29.64
KIRKSVILLE     CLOUDY    50  49  96 NE14      29.68R

$$

MOZ041-047>049-056>058-063>065-088>090-097-260000-
...EASTERN AND SOUTHERN MISSOURI...

CITY           SKY/WX    TMP DP  RH WIND       PRES   REMARKS
ST. LOUIS INTL LGT RAIN  58  55  90 NE7       29.57R
SPIRIT OF STL  LGT RAIN  57  55  93 N5        29.57R
COLUMBIA       CLOUDY    58  56  93 N15       29.57R
JEFFERSON CITY PTSUNNY   66  57  72 W10       29.55R
MEXICO         CLOUDY   N/A N/A N/A NE13      29.58R
HANNIBAL       CLOUDY    54  50  87 NE7G21    29.64R
ROLLA          CLOUDY    63  56  78 W9        29.54R
LEBANON        MOSUNNY   66  54  63 N7G20     29.58R
OSAGE BEACH    PTSUNNY   68  52  56 W14G20    29.56R
SPRINGFIELD    PTSUNNY   71  53  52 NW15G28   29.58R
BRANSON        PTSUNNY   77  50  38 W15G25    29.58R
NEVADA         CLOUDY    64  55  72 NW15G24   29.63R
JOPLIN         SUNNY     70  53  54 NW18      29.62R
WEST PLAINS    PTSUNNY   75  49  39 NW12G22   29.55R

$$

IAZ060-094-KSZ022-034>040-054-083-096-NEZ052-066-093-260000-
...KANSAS...SOUTHEAST NEBRASKA AND IOWA...

CITY           SKY/WX    TMP DP  RH WIND       PRES   REMARKS
TOPEKA         CLOUDY    55  51  86 N14       29.69R
MANHATTAN      CLOUDY    56  51  84 N8        29.70R
EMPORIA        PTSUNNY   63  54  72 N16       29.66R
CHANUTE        PTSUNNY   69  54  58 N15       29.64R
WICHITA        PTSUNNY   74  53  48 N16       29.65R
OMAHA          CLOUDY    52  45  77 NE9       29.77R
LINCOLN        CLOUDY    53  47  79 NE16      29.77R
FALLS CITY     CLOUDY    50  46  86 NE15      29.73R
LAMONI         CLOUDY    49  46  90 NE14      29.71R
DES MOINES     CLOUDY    52  43  71 E14G24    29.76R

$$



USA.gov is the U.S. government's official web portal to all federal, state and local government web resources and services.